Location: Bennemühlen
(52.5740°N, 9.7135°E)
Time: 17:11:06
(UTC+00:00)

Cosmos 2208 Rocket - Pass Details

Date: 19 May 2025
Orbit: 752 x 801 km, 74.0° (Epoch: 17 June)

Event Time Altitude Azimuth Distance (km) Brightness Sun altitude
Exits shadow 20:55:02 - 189° (S) 2,771 6.5 -11.1°
Reaches altitude 10° 20:56:08 10° 187° (S) 2,356 6.1 -11.2°
Maximum altitude 21:01:23 59° 109° (ESE) 911 4.1 -11.7°
Drops below altitude 10° 21:06:36 10° 31° (NNE) 2,343 6.9 -12.1°
Sets 21:09:01 0° 28° (NNE) 3,267 7.7 -12.3°
